Osoyoos, British Columbia

6:18 AM PDT on May 24, 2017 (GMT -0700)
Osoyoos

Weather History for CWYY - July, 2013

Change the Weather History Date:

Monday, July 29, 2013

  Actual Average (KOMK) Record (KOMK)
Temperature  
Mean Temperature 76 °F 75 °F  
Max Temperature 89 °F 91 °F 105 °F (1998)
Min Temperature 63 °F 59 °F 39 °F (1947)
Degree Days  
Heating Degree Days 0 0  
Month to date heating degree days 11  
Since 1 June heating degree days 80  
Since 1 July heating degree days 11  
Cooling Degree Days 11 10  
Month to date cooling degree days 233  
Year to date cooling degree days 340  
Since 1 June cooling degree days 317  
Growing Degree Days 26 (Base 50)    
Moisture  
Dew Point 45 °F    
Average Humidity 33    
Maximum Humidity 55    
Minimum Humidity 12    
Precipitation  
Precipitation 0.00 in 0.02 in 0.27 in (1993)
Month to date precipitation 0.77  
Year to date precipitation 8.75  
Sea Level Pressure  
Sea Level Pressure 29.88 in    
Wind  
Wind Speed 4 mph ()    
Max Wind Speed 12 mph    
Max Gust Speed 22 mph    
T = Trace of Precipitation, MM = Missing Value Source: Averaged Metar Reports

Daily Weather History Graph

Daily Weather History Graph

Search for Another Location

Airport or City:

Trip Planner

Search our weather history database for the weather conditions in past years. The results will help you decide how hot, cold, wet, or windy it might be!

Date:

Astronomy

Jul. 29, 2013 Rise Set
Actual Time 5:26 AM PDT 8:40 PM PDT
Civil Twilight 4:48 AM PDT 9:18 PM PDT
Nautical Twilight 3:58 AM PDT 10:07 PM PDT
Astronomical Twilight 2:54 AM PDT 11:11 PM PDT
Moon 11:53 PM PDT (7/29) 2:00 PM PDT (7/29)
Length of Visible Light 16h 29m
Length of Day
15h 13m
Waning Gibbous, 50% of the Moon is Illuminated
Jul 29
Waning Gibbous
Aug 6
New
Aug 14
First Quarter
Aug 20
Full
Aug 28
Last Quarter

Hourly Weather History & Observations

Time (PDT) Temp. Dew Point Humidity Pressure Visibility Wind Dir Wind Speed Gust Speed Precip Events Conditions
12:00 AM 72.1 °F 49.1 °F 44% 29.86 in - WNW 3.5 mph - N/A   Unknown
1:00 AM 68.7 °F 50.4 °F 52% 29.87 in - NNW 3.5 mph - N/A   Unknown
2:00 AM 65.8 °F 49.5 °F 55% 29.88 in - NNE 2.3 mph - N/A   Unknown
3:00 AM 68.7 °F 48.0 °F 48% 29.88 in - North 3.5 mph - N/A   Unknown
4:00 AM 66.2 °F 46.8 °F 50% 29.89 in - North 2.3 mph - N/A   Unknown
5:00 AM 67 °F 47 °F 38% 29.90 in - NNW 3.5 mph - -  
5:00 AM 67.3 °F 47.1 °F 48% 29.90 in - NNW 3.5 mph - N/A   Unknown
6:00 AM 67.1 °F 47.1 °F 49% 29.91 in - NW 4.6 mph - N/A   Unknown
7:00 AM 68.0 °F 48.7 °F 50% 29.92 in - NW 6.9 mph - N/A   Unknown
8:00 AM 72.0 °F 44.8 °F 38% 29.92 in - North 11.5 mph 21.9 mph N/A   Unknown
9:00 AM 73.4 °F 45.3 °F 37% 29.92 in - NNW 9.2 mph 19.6 mph N/A   Unknown
10:00 AM 75.6 °F 45.0 °F 34% 29.91 in - NNW 10.4 mph 17.3 mph N/A   Unknown
11:00 AM 78 °F 43 °F 18% 29.90 in - NNW 9.2 mph - -  
11:00 AM 78.4 °F 42.6 °F 28% 29.90 in - NNW 9.2 mph - N/A   Unknown
12:00 PM 81.1 °F 44.1 °F 27% 29.89 in - NW 6.9 mph - N/A   Unknown
1:00 PM 83.5 °F 43.2 °F 24% 29.87 in - NW 8.1 mph - N/A   Unknown
2:00 PM 85.1 °F 41.5 °F 22% 29.86 in - WNW 3.5 mph - N/A   Unknown
3:00 PM 85.8 °F 41.0 °F 21% 29.85 in - NW 4.6 mph - N/A   Unknown
4:00 PM 88.2 °F 41.0 °F 19% 29.84 in - NW 4.6 mph - N/A   Unknown
5:00 PM 86 °F 41 °F 12% 29.83 in - West 5.8 mph - -  
5:00 PM 86.0 °F 41.0 °F 20% 29.83 in - West 5.8 mph - N/A   Unknown
6:00 PM 85.3 °F 46.4 °F 26% 29.83 in - NW 5.8 mph - N/A   Unknown
7:00 PM 84.6 °F 43.7 °F 24% 29.84 in - NW 5.8 mph - N/A   Unknown
8:00 PM 78.4 °F 49.3 °F 36% 29.86 in - NNW 3.5 mph - N/A   Unknown
9:00 PM 77.4 °F 43.9 °F 30% 29.88 in - NNW 3.5 mph - N/A   Unknown
10:00 PM 74.8 °F 47.8 °F 38% 29.90 in - North 3.5 mph - N/A   Unknown
11:00 PM 76 °F 43 °F 20% 29.91 in - NW 3.5 mph - -  
11:00 PM 76.5 °F 43.2 °F 30% 29.91 in - NW 3.5 mph - N/A   Unknown